Time,TemperatureF,DewpointF,PressureIn,WindDirection,WindDirectionDegrees,WindSpeedMPH,WindSpeedGustMPH,Humidity,HourlyPrecipIn,Conditions,Clouds,dailyrainin,SoftwareType,DateUTC
2013-04-27 00:04:00,41.3,30.0,30.33,NE,35,0.0,0.0,64,0.00,,,0.02,weatherlink.com 1.10,2013-04-27 04:04:00,
2013-04-27 00:19:00,41.2,30.0,30.33,NE,39,0.0,0.0,64,0.00,,,0.02,weatherlink.com 1.10,2013-04-27 04:19:00,
2013-04-27 00:34:00,41.3,30.0,30.34,NE,39,0.0,0.0,65,0.00,,,0.02,weatherlink.com 1.10,2013-04-27 04:34:00,
2013-04-27 00:49:00,41.1,30.0,30.34,NE,39,0.0,0.0,65,0.00,,,0.02,weatherlink.com 1.10,2013-04-27 04:49:00,
2013-04-27 01:05:00,40.9,30.0,30.34,NE,39,0.0,0.0,66,0.00,,,0.00,weatherlink.com 1.10,2013-04-27 05:05:00,
2013-04-27 01:19:00,40.9,31.0,30.34,NE,39,0.0,0.0,67,0.00,,,0.00,weatherlink.com 1.10,2013-04-27 05:19:00,
2013-04-27 01:35:00,40.7,31.0,30.34,NE,39,0.0,0.0,68,0.00,,,0.00,weatherlink.com 1.10,2013-04-27 05:35:00,
2013-04-27 01:51:00,40.7,31.0,30.33,NE,39,0.0,0.0,69,0.00,,,0.00,weatherlink.com 1.10,2013-04-27 05:51:00,
2013-04-27 02:05:00,40.4,31.0,30.33,NE,39,0.0,0.0,70,0.00,,,0.00,weatherlink.com 1.10,2013-04-27 06:05:00,
2013-04-27 02:20:00,40.1,32.0,30.32,NE,39,0.0,0.0,72,0.00,,,0.00,weatherlink.com 1.10,2013-04-27 06:20:00,
2013-04-27 02:34:00,39.8,32.0,30.32,SE,143,0.0,0.0,73,0.00,,,0.00,weatherlink.com 1.10,2013-04-27 06:34:00,
2013-04-27 02:50:00,39.6,32.0,30.32,SE,136,0.0,0.0,73,0.00,,,0.00,weatherlink.com 1.10,2013-04-27 06:50:00,
2013-04-27 03:05:00,39.3,32.0,30.32,SSE,159,0.0,0.0,76,0.00,,,0.00,weatherlink.com 1.10,2013-04-27 07:05:00,
2013-04-27 03:20:00,38.9,32.0,30.32,South,175,0.0,0.0,77,0.00,,,0.00,weatherlink.com 1.10,2013-04-27 07:20:00,
2013-04-27 03:35:00,38.9,33.0,30.32,South,175,0.0,0.0,78,0.00,,,0.00,weatherlink.com 1.10,2013-04-27 07:35:00,
2013-04-27 03:51:00,38.9,33.0,30.32,South,176,2.0,5.0,79,0.00,,,0.00,weatherlink.com 1.10,2013-04-27 07:51:00,
2013-04-27 04:05:00,38.7,33.0,30.32,South,176,1.0,3.0,81,0.00,,,0.00,weatherlink.com 1.10,2013-04-27 08:05:00,
2013-04-27 04:20:00,37.9,33.0,30.32,SSE,167,3.0,4.0,83,0.00,,,0.00,weatherlink.com 1.10,2013-04-27 08:20:00,
2013-04-27 04:35:00,38.1,33.0,30.32,South,175,3.0,5.0,83,0.00,,,0.00,weatherlink.com 1.10,2013-04-27 08:35:00,
2013-04-27 04:49:00,38.3,33.0,30.32,SSE,164,2.0,4.0,81,0.00,,,0.00,weatherlink.com 1.10,2013-04-27 08:49:00,
2013-04-27 05:05:00,37.9,33.0,30.31,SSE,157,4.0,4.0,82,0.00,,,0.00,weatherlink.com 1.10,2013-04-27 09:05:00,
2013-04-27 05:21:00,37.5,33.0,30.31,SSE,157,3.0,4.0,82,0.00,,,0.00,weatherlink.com 1.10,2013-04-27 09:21:00,
2013-04-27 05:36:00,37.2,33.0,30.31,SSE,156,4.0,4.0,83,0.00,,,0.00,weatherlink.com 1.10,2013-04-27 09:36:00,
2013-04-27 05:50:00,37.4,33.0,30.31,SSE,162,3.0,4.0,83,0.00,,,0.00,weatherlink.com 1.10,2013-04-27 09:50:00,
2013-04-27 06:06:00,37.3,32.0,30.31,SE,146,3.0,5.0,82,0.00,,,0.00,weatherlink.com 1.10,2013-04-27 10:06:00,
2013-04-27 06:21:00,37.4,32.0,30.31,SSE,147,3.0,4.0,82,0.00,,,0.00,weatherlink.com 1.10,2013-04-27 10:21:00,
2013-04-27 06:36:00,37.3,32.0,30.31,SSE,161,3.0,4.0,82,0.00,,,0.00,weatherlink.com 1.10,2013-04-27 10:36:00,
2013-04-27 06:50:00,37.9,33.0,30.31,SSE,154,2.0,4.0,83,0.00,,,0.00,weatherlink.com 1.10,2013-04-27 10:50:00,
2013-04-27 07:06:00,38.8,33.0,30.31,SSE,162,1.0,3.0,81,0.00,,,0.00,weatherlink.com 1.10,2013-04-27 11:06:00,
2013-04-27 07:21:00,40.7,34.0,30.31,SE,145,2.0,4.0,77,0.00,,,0.00,weatherlink.com 1.10,2013-04-27 11:21:00,
2013-04-27 07:37:00,42.9,35.0,30.32,SSE,158,2.0,4.0,73,0.00,,,0.00,weatherlink.com 1.10,2013-04-27 11:37:00,
2013-04-27 07:51:00,44.5,35.0,30.32,SSE,157,6.0,6.0,69,0.00,,,0.00,weatherlink.com 1.10,2013-04-27 11:51:00,
2013-04-27 08:07:00,46.3,35.0,30.32,SSE,155,2.0,8.0,65,0.00,,,0.00,weatherlink.com 1.10,2013-04-27 12:07:00,
2013-04-27 08:22:00,47.0,36.0,30.32,SSE,157,5.0,7.0,65,0.00,,,0.00,weatherlink.com 1.10,2013-04-27 12:22:00,
2013-04-27 08:38:00,48.2,36.0,30.32,SSE,153,3.0,6.0,64,0.00,,,0.00,weatherlink.com 1.10,2013-04-27 12:38:00,
2013-04-27 08:53:00,50.5,36.0,30.32,South,181,6.0,10.0,59,0.00,,,0.00,weatherlink.com 1.10,2013-04-27 12:53:00,
2013-04-27 09:08:00,51.5,37.0,30.32,South,175,5.0,8.0,57,0.00,,,0.00,weatherlink.com 1.10,2013-04-27 13:08:00,
2013-04-27 09:23:00,51.7,35.0,30.32,South,187,8.0,10.0,54,0.00,,,0.00,weatherlink.com 1.10,2013-04-27 13:23:00,
2013-04-27 09:37:00,52.8,35.0,30.31,South,186,5.0,9.0,52,0.00,,,0.00,weatherlink.com 1.10,2013-04-27 13:37:00,
2013-04-27 09:53:00,54.4,36.0,30.31,South,183,4.0,9.0,51,0.00,,,0.00,weatherlink.com 1.10,2013-04-27 13:53:00,
2013-04-27 10:10:00,55.3,37.0,30.31,SSW,207,0.0,7.0,51,0.00,,,0.00,weatherlink.com 1.10,2013-04-27 14:10:00,
2013-04-27 10:24:00,57.3,37.0,30.30,SSE,161,2.0,6.0,47,0.00,,,0.00,weatherlink.com 1.10,2013-04-27 14:24:00,
2013-04-27 10:38:00,58.5,36.0,30.30,South,185,0.0,9.0,44,0.00,,,0.00,weatherlink.com 1.10,2013-04-27 14:38:00,
2013-04-27 10:53:00,58.5,36.0,30.30,SSW,198,8.0,8.0,43,0.00,,,0.00,weatherlink.com 1.10,2013-04-27 14:53:00,
2013-04-27 11:08:00,58.7,32.0,30.30,North,355,0.0,8.0,37,0.00,,,0.00,weatherlink.com 1.10,2013-04-27 15:08:00,
2013-04-27 11:24:00,59.0,36.0,30.30,WNW,283,3.0,6.0,42,0.00,,,0.00,weatherlink.com 1.10,2013-04-27 15:24:00,
2013-04-27 11:40:00,58.9,32.0,30.30,SW,217,0.0,8.0,37,0.00,,,0.00,weatherlink.com 1.10,2013-04-27 15:40:00,
2013-04-27 11:55:00,58.2,33.0,30.30,WNW,290,0.0,8.0,39,0.00,,,0.00,weatherlink.com 1.10,2013-04-27 15:55:00,
2013-04-27 12:10:00,58.0,32.0,30.29,WNW,292,4.0,10.0,37,0.00,,,0.00,weatherlink.com 1.10,2013-04-27 16:10:00,
2013-04-27 12:24:00,58.2,32.0,30.29,ENE,61,2.0,6.0,37,0.00,,,0.00,weatherlink.com 1.10,2013-04-27 16:24:00,
2013-04-27 12:39:00,59.4,33.0,30.28,ESE,105,0.0,7.0,37,0.00,,,0.00,weatherlink.com 1.10,2013-04-27 16:39:00,
2013-04-27 12:55:00,63.6,35.0,30.27,NW,323,0.0,1.0,34,0.00,,,0.00,weatherlink.com 1.10,2013-04-27 16:55:00,
2013-04-27 13:12:00,62.1,32.0,30.26,East,92,2.0,7.0,33,0.00,,,0.00,weatherlink.com 1.10,2013-04-27 17:12:00,
2013-04-27 13:26:00,60.8,34.0,30.26,NNW,332,0.0,8.0,37,0.00,,,0.00,weatherlink.com 1.10,2013-04-27 17:26:00,
2013-04-27 13:41:00,62.0,33.0,30.25,North,10,0.0,5.0,34,0.00,,,0.00,weatherlink.com 1.10,2013-04-27 17:41:00,
2013-04-27 13:55:00,63.9,36.0,30.24,SSW,211,3.0,7.0,35,0.00,,,0.00,weatherlink.com 1.10,2013-04-27 17:55:00,
2013-04-27 14:11:00,61.0,34.0,30.24,West,269,7.0,12.0,37,0.00,,,0.00,weatherlink.com 1.10,2013-04-27 18:11:00,
2013-04-27 14:27:00,62.0,34.0,30.24,NW,313,8.0,10.0,35,0.00,,,0.00,weatherlink.com 1.10,2013-04-27 18:27:00,
2013-04-27 14:41:00,62.1,32.0,30.23,NW,315,3.0,8.0,32,0.00,,,0.00,weatherlink.com 1.10,2013-04-27 18:41:00,
2013-04-27 14:56:00,62.9,33.0,30.22,NNE,18,1.0,5.0,33,0.00,,,0.00,weatherlink.com 1.10,2013-04-27 18:56:00,
2013-04-27 15:12:00,63.0,33.0,30.22,NW,314,3.0,10.0,33,0.00,,,0.00,weatherlink.com 1.10,2013-04-27 19:12:00,
2013-04-27 15:26:00,64.3,34.0,30.21,West,281,4.0,6.0,33,0.00,,,0.00,weatherlink.com 1.10,2013-04-27 19:26:00,
2013-04-27 15:41:00,66.6,37.0,30.20,NW,316,2.0,6.0,34,0.00,,,0.00,weatherlink.com 1.10,2013-04-27 19:41:00,
2013-04-27 15:58:00,64.8,34.0,30.19,SSW,200,0.0,5.0,32,0.00,,,0.00,weatherlink.com 1.10,2013-04-27 19:58:00,
2013-04-27 16:12:00,65.4,36.0,30.19,WNW,302,8.0,9.0,34,0.00,,,0.00,weatherlink.com 1.10,2013-04-27 20:12:00,
2013-04-27 16:27:00,65.0,36.0,30.18,WSW,243,0.0,8.0,34,0.00,,,0.00,weatherlink.com 1.10,2013-04-27 20:27:00,
2013-04-27 16:42:00,64.6,35.0,30.18,NW,311,5.0,8.0,33,0.00,,,0.00,weatherlink.com 1.10,2013-04-27 20:42:00,
2013-04-27 16:58:00,64.7,35.0,30.18,North,355,2.0,10.0,33,0.00,,,0.00,weatherlink.com 1.10,2013-04-27 20:58:00,
2013-04-27 17:13:00,64.7,36.0,30.18,WNW,298,5.0,7.0,35,0.00,,,0.00,weatherlink.com 1.10,2013-04-27 21:13:00,
2013-04-27 17:29:00,64.6,35.0,30.17,North,9,2.0,6.0,34,0.00,,,0.00,weatherlink.com 1.10,2013-04-27 21:29:00,
2013-04-27 17:42:00,64.8,37.0,30.17,North,355,1.0,7.0,36,0.00,,,0.00,weatherlink.com 1.10,2013-04-27 21:42:00,
2013-04-27 17:59:00,65.0,37.0,30.17,North,355,3.0,5.0,35,0.00,,,0.00,weatherlink.com 1.10,2013-04-27 21:59:00,
2013-04-27 18:14:00,64.5,37.0,30.17,ENE,57,4.0,6.0,36,0.00,,,0.00,weatherlink.com 1.10,2013-04-27 22:14:00,
2013-04-27 18:28:00,64.1,36.0,30.17,NNE,20,5.0,6.0,35,0.00,,,0.00,weatherlink.com 1.10,2013-04-27 22:28:00,
2013-04-27 18:43:00,64.0,35.0,30.16,North,360,0.0,5.0,34,0.00,,,0.00,weatherlink.com 1.10,2013-04-27 22:43:00,
2013-04-27 18:59:00,64.8,36.0,30.16,North,11,0.0,4.0,34,0.00,,,0.00,weatherlink.com 1.10,2013-04-27 22:59:00,
2013-04-27 19:13:00,63.8,38.0,30.16,NE,47,3.0,4.0,38,0.00,,,0.00,weatherlink.com 1.10,2013-04-27 23:13:00,
2013-04-27 19:29:00,62.5,37.0,30.15,ENE,59,4.0,5.0,39,0.00,,,0.00,weatherlink.com 1.10,2013-04-27 23:29:00,
2013-04-27 19:44:00,61.4,37.0,30.15,NE,54,0.0,4.0,40,0.00,,,0.00,weatherlink.com 1.10,2013-04-27 23:44:00,
2013-04-27 19:59:00,60.6,37.0,30.15,NE,54,0.0,0.0,41,0.00,,,0.00,weatherlink.com 1.10,2013-04-27 23:59:00,
2013-04-27 20:15:00,59.5,37.0,30.15,NE,54,0.0,0.0,43,0.00,,,0.00,weatherlink.com 1.10,2013-04-28 00:15:00,
2013-04-27 20:29:00,59.0,36.0,30.15,NE,54,0.0,0.0,43,0.00,,,0.00,weatherlink.com 1.10,2013-04-28 00:29:00,
2013-04-27 20:45:00,58.5,36.0,30.15,NE,54,0.0,0.0,43,0.00,,,0.00,weatherlink.com 1.10,2013-04-28 00:45:00,
2013-04-27 21:00:00,57.8,36.0,30.16,NE,54,0.0,0.0,44,0.00,,,0.00,weatherlink.com 1.10,2013-04-28 01:00:00,
2013-04-27 21:15:00,57.3,36.0,30.15,NE,54,0.0,0.0,46,0.00,,,0.00,weatherlink.com 1.10,2013-04-28 01:15:00,
2013-04-27 21:30:00,56.6,36.0,30.15,East,98,0.0,0.0,47,0.00,,,0.00,weatherlink.com 1.10,2013-04-28 01:30:00,
2013-04-27 21:46:00,56.2,37.0,30.15,East,91,0.0,0.0,48,0.00,,,0.00,weatherlink.com 1.10,2013-04-28 01:46:00,
2013-04-27 22:01:00,55.7,37.0,30.14,SE,136,0.0,0.0,49,0.00,,,0.00,weatherlink.com 1.10,2013-04-28 02:01:00,